| time (UTC) | temp F | wind direction | speed MPH | gust MPH | rain 1hr in | rain 24hr in | rain mn in | humidity % | barometer mb |
| 20260504151022 | 66 | 216 | 6.0 | 10.0 | 0.00 | 0.00 | 0.00 | 42 | 1013.7 |
| 20260504150519 | 65 | 246 | 9.0 | 13.0 | 0.00 | 0.00 | 0.00 | 43 | 1013.6 |
| 20260504140945 | 63 | 223 | 1.0 | 2.0 | 0.00 | 0.00 | 0.00 | 50 | 1013.9 |
| 20260504140442 | 63 | 211 | 3.0 | 5.0 | 0.00 | 0.00 | 0.00 | 49 | 1014.2 |
| 20260504130406 | 57 | 257 | 5.0 | 6.0 | 0.00 | 0.00 | 0.00 | 59 | 1015.0 |
| 20260504110248 | 37 | 233 | 0.0 | 0.0 | 0.00 | 0.00 | 0.00 | 93 | 1015.6 |
| 20260504100211 | 35 | 234 | 0.0 | 0.0 | 0.00 | 0.00 | 0.00 | 93 | 1015.4 |
| 20260504090134 | 36 | 225 | 0.0 | 0.0 | 0.00 | 0.00 | 0.00 | 92 | 1015.1 |
| 20260504081604 | 36 | 232 | 0.0 | 0.0 | 0.00 | 0.00 | 0.00 | 92 | 1015.0 |
| 20260504081100 | 37 | 226 | 0.0 | 0.0 | 0.00 | 0.00 | 0.00 | 92 | 1014.9 |
| 20260504080557 | 37 | 225 | 0.0 | 0.0 | 0.00 | 0.00 | 0.00 | 92 | 1014.8 |
| 20260504050409 | 39 | 240 | 0.0 | 0.0 | 0.00 | 0.00 | 0.00 | 84 | 1014.5 |
| 20260504045906 | 39 | 242 | 0.0 | 0.0 | 0.00 | 0.00 | 0.00 | 83 | 1014.5 |
| 20260504045402 | 39 | 230 | 0.0 | 0.0 | 0.00 | 0.00 | 0.00 | 83 | 1014.3 |
| 20260504044859 | 39 | 231 | 0.0 | 0.0 | 0.00 | 0.00 | 0.00 | 82 | 1014.4 |
| 20260504044356 | 40 | 220 | 0.0 | 0.0 | 0.00 | 0.00 | 0.00 | 81 | 1014.2 |
| 20260504043854 | 40 | 246 | 0.0 | 0.0 | 0.00 | 0.00 | 0.00 | 80 | 1014.5 |
| 20260504043350 | 40 | 228 | 0.0 | 0.0 | 0.00 | 0.00 | 0.00 | 79 | 1014.3 |
| 20260504042848 | 41 | 230 | 0.0 | 0.0 | 0.00 | 0.00 | 0.00 | 78 | 1014.4 |
| 20260504042344 | 41 | 226 | 0.0 | 0.0 | 0.00 | 0.00 | 0.00 | 78 | 1014.4 |
| 20260504041840 | 41 | 224 | 0.0 | 0.0 | 0.00 | 0.00 | 0.00 | 79 | 1014.2 |
| 20260504041336 | 41 | 224 | 0.0 | 0.0 | 0.00 | 0.00 | 0.00 | 79 | 1014.5 |
| 20260504040832 | 41 | 228 | 0.0 | 0.0 | 0.00 | 0.00 | 0.00 | 79 | 1014.2 |
| 20260504040331 | 41 | 227 | 0.0 | 0.0 | 0.00 | 0.00 | 0.00 | 78 | 1014.1 |
| 20260504035826 | 42 | 229 | 0.0 | 0.0 | 0.00 | 0.00 | 0.00 | 77 | 1014.2 |
| 20260504035324 | 42 | 231 | 0.0 | 0.0 | 0.00 | 0.00 | 0.00 | 76 | 1013.8 |
| 20260504034820 | 42 | 224 | 0.0 | 0.0 | 0.00 | 0.00 | 0.00 | 76 | 1013.8 |
| 20260504034318 | 42 | 224 | 0.0 | 0.0 | 0.00 | 0.00 | 0.00 | 75 | 1013.9 |
| 20260504033815 | 42 | 215 | 0.0 | 0.0 | 0.00 | 0.00 | 0.00 | 75 | 1013.9 |
| 20260504033313 | 42 | 200 | 0.0 | 0.0 | 0.00 | 0.00 | 0.00 | 78 | 1013.5 |
| 20260504032809 | 42 | 223 | 0.0 | 0.0 | 0.00 | 0.00 | 0.00 | 77 | 1013.7 |
| 20260504032307 | 42 | 225 | 0.0 | 0.0 | 0.00 | 0.00 | 0.00 | 79 | 1013.8 |
| 20260504031803 | 42 | 224 | 0.0 | 0.0 | 0.00 | 0.00 | 0.00 | 78 | 1013.8 |
| 20260504031301 | 42 | 227 | 0.0 | 0.0 | 0.00 | 0.00 | 0.00 | 78 | 1013.7 |
| 20260504030757 | 42 | 223 | 0.0 | 0.0 | 0.00 | 0.00 | 0.00 | 78 | 1013.7 |
| 20260504030254 | 42 | 227 | 0.0 | 0.0 | 0.00 | 0.00 | 0.00 | 78 | 1013.6 |
| 20260504025750 | 42 | 221 | 0.0 | 0.0 | 0.00 | 0.00 | 0.00 | 77 | 1013.6 |
| 20260504025247 | 42 | 230 | 0.0 | 0.0 | 0.00 | 0.00 | 0.00 | 74 | 1013.8 |
| 20260504024744 | 43 | 228 | 0.0 | 0.0 | 0.00 | 0.00 | 0.00 | 74 | 1013.8 |
| 20260504024241 | 43 | 227 | 0.0 | 0.0 | 0.00 | 0.00 | 0.00 | 73 | 1013.7 |
| 20260504023738 | 43 | 226 | 0.0 | 0.0 | 0.00 | 0.00 | 0.00 | 73 | 1013.8 |
| 20260504023234 | 43 | 212 | 0.0 | 0.0 | 0.00 | 0.00 | 0.00 | 74 | 1013.8 |
| 20260504022730 | 44 | 230 | 0.0 | 0.0 | 0.00 | 0.00 | 0.00 | 72 | 1013.6 |
| 20260504022226 | 44 | 224 | 0.0 | 0.0 | 0.00 | 0.00 | 0.00 | 72 | 1013.7 |
| 20260504021723 | 44 | 226 | 0.0 | 0.0 | 0.00 | 0.00 | 0.00 | 73 | 1013.7 |
| 20260504021221 | 44 | 225 | 0.0 | 0.0 | 0.00 | 0.00 | 0.00 | 72 | 1013.9 |
| 20260504020717 | 44 | 227 | 0.0 | 0.0 | 0.00 | 0.00 | 0.00 | 71 | 1013.7 |
| 20260504020214 | 44 | 223 | 0.0 | 0.0 | 0.00 | 0.00 | 0.00 | 71 | 1013.7 |
| 20260504015710 | 45 | 216 | 0.0 | 0.0 | 0.00 | 0.00 | 0.00 | 74 | 1013.6 |
| 20260504015207 | 45 | 221 | 0.0 | 0.0 | 0.00 | 0.00 | 0.00 | 72 | 1013.7 |
| 20260504014702 | 45 | 228 | 0.0 | 0.0 | 0.00 | 0.00 | 0.00 | 69 | 1013.6 |
| 20260504014159 | 46 | 232 | 0.0 | 0.0 | 0.00 | 0.00 | 0.00 | 67 | 1013.5 |
| 20260504013657 | 46 | 226 | 0.0 | 0.0 | 0.00 | 0.00 | 0.00 | 66 | 1013.4 |
| 20260504013154 | 46 | 218 | 0.0 | 0.0 | 0.00 | 0.00 | 0.00 | 66 | 1013.6 |
| 20260504012651 | 46 | 225 | 0.0 | 0.0 | 0.00 | 0.00 | 0.00 | 67 | 1013.3 |
| 20260504012149 | 46 | 226 | 0.0 | 0.0 | 0.00 | 0.00 | 0.00 | 69 | 1013.2 |
| 20260504011645 | 46 | 228 | 0.0 | 0.0 | 0.00 | 0.00 | 0.00 | 69 | 1013.3 |
| 20260504011142 | 46 | 227 | 0.0 | 0.0 | 0.00 | 0.00 | 0.00 | 68 | 1013.1 |
| 20260504010638 | 46 | 221 | 0.0 | 0.0 | 0.00 | 0.00 | 0.00 | 66 | 1013.1 |
| 20260504010134 | 47 | 233 | 0.0 | 0.0 | 0.00 | 0.00 | 0.00 | 64 | 1013.0 |
| 20260504005631 | 47 | 228 | 0.0 | 0.0 | 0.00 | 0.00 | 0.00 | 64 | 1013.0 |
| 20260504005128 | 48 | 225 | 0.0 | 0.0 | 0.00 | 0.00 | 0.00 | 64 | 1012.9 |
| 20260504004626 | 48 | 226 | 0.0 | 0.0 | 0.00 | 0.00 | 0.00 | 63 | 1012.8 |
| 20260504004123 | 49 | 224 | 0.0 | 0.0 | 0.00 | 0.00 | 0.00 | 64 | 1013.0 |
| 20260504003619 | 49 | 226 | 0.0 | 0.0 | 0.00 | 0.00 | 0.00 | 59 | 1012.9 |
| 20260504003115 | 50 | 228 | 0.0 | 0.0 | 0.00 | 0.00 | 0.00 | 56 | 1012.6 |
| 20260504002612 | 51 | 226 | 0.0 | 0.0 | 0.00 | 0.00 | 0.00 | 60 | 1012.4 |
| 20260504002110 | 52 | 225 | 0.0 | 0.0 | 0.00 | 0.00 | 0.00 | 52 | 1012.7 |
| 20260504001608 | 53 | 227 | 0.0 | 0.0 | 0.00 | 0.00 | 0.00 | 48 | 1012.5 |
| 20260504001103 | 53 | 228 | 0.0 | 0.0 | 0.00 | 0.00 | 0.00 | 44 | 1012.3 |
| 20260504000601 | 55 | 230 | 0.0 | 0.0 | 0.00 | 0.00 | 0.00 | 40 | 1012.2 |
| 20260504000058 | 56 | 228 | 0.0 | 0.0 | 0.00 | 0.00 | 0.00 | 39 | 1012.3 |
| 20260503235556 | 57 | 241 | 0.0 | 0.0 | 0.00 | 0.00 | 0.00 | 37 | 1012.1 |
| 20260503235053 | 57 | 233 | 0.0 | 0.0 | 0.00 | 0.00 | 0.00 | 36 | 1012.4 |
| 20260503234551 | 58 | 242 | 0.0 | 0.0 | 0.00 | 0.00 | 0.00 | 36 | 1012.1 |
| 20260503234049 | 58 | 244 | 0.0 | 0.0 | 0.00 | 0.00 | 0.00 | 34 | 1012.0 |
| 20260503233545 | 59 | 317 | 3.0 | 3.0 | 0.00 | 0.00 | 0.00 | 34 | 1012.1 |
| 20260503233041 | 59 | 297 | 3.0 | 5.0 | 0.00 | 0.00 | 0.00 | 34 | 1012.1 |
| 20260503232538 | 59 | 340 | 4.0 | 6.0 | 0.00 | 0.00 | 0.00 | 33 | 1011.8 |
| 20260503232036 | 60 | 302 | 3.0 | 3.0 | 0.00 | 0.00 | 0.00 | 34 | 1012.0 |
| 20260503231533 | 60 | 250 | 3.0 | 5.0 | 0.00 | 0.00 | 0.00 | 33 | 1011.8 |
| 20260503231030 | 60 | 233 | 0.0 | 1.0 | 0.00 | 0.00 | 0.00 | 33 | 1011.7 |
| 20260503230526 | 61 | 266 | 0.0 | 1.0 | 0.00 | 0.00 | 0.00 | 32 | 1011.7 |
| 20260503230024 | 61 | 246 | 3.0 | 6.0 | 0.00 | 0.00 | 0.00 | 32 | 1011.9 |
| 20260503225521 | 61 | 298 | 4.0 | 6.0 | 0.00 | 0.00 | 0.00 | 32 | 1011.7 |
| 20260503225016 | 61 | 317 | 6.0 | 9.0 | 0.00 | 0.00 | 0.00 | 31 | 1011.7 |
| 20260503224514 | 61 | 297 | 5.0 | 7.0 | 0.00 | 0.00 | 0.00 | 30 | 1011.6 |
| 20260503224011 | 61 | 317 | 2.0 | 2.0 | 0.00 | 0.00 | 0.00 | 32 | 1011.7 |
| 20260503223509 | 61 | 307 | 4.0 | 6.0 | 0.00 | 0.00 | 0.00 | 31 | 1011.6 |
| 20260503223004 | 60 | 245 | 4.0 | 5.0 | 0.00 | 0.00 | 0.00 | 32 | 1011.8 |
| 20260503222503 | 61 | 254 | 4.0 | 5.0 | 0.00 | 0.00 | 0.00 | 30 | 1011.7 |
| 20260503222000 | 61 | 229 | 1.0 | 1.0 | 0.00 | 0.00 | 0.00 | 32 | 1011.7 |
| 20260503221458 | 61 | 317 | 3.0 | 3.0 | 0.00 | 0.00 | 0.00 | 31 | 1011.7 |
| 20260503220955 | 61 | 281 | 3.0 | 3.0 | 0.00 | 0.00 | 0.00 | 31 | 1011.6 |
| 20260503220452 | 61 | 238 | 4.0 | 5.0 | 0.00 | 0.00 | 0.00 | 31 | 1011.7 |
| 20260503215948 | 61 | 301 | 3.0 | 3.0 | 0.00 | 0.00 | 0.00 | 32 | 1011.5 |
| 20260503215445 | 61 | 233 | 3.0 | 6.0 | 0.00 | 0.00 | 0.00 | 33 | 1011.6 |
| 20260503214943 | 61 | 290 | 2.0 | 5.0 | 0.00 | 0.00 | 0.00 | 31 | 1011.7 |
| 20260503214441 | 60 | 238 | 5.0 | 7.0 | 0.00 | 0.00 | 0.00 | 30 | 1011.7 |
| 20260503213938 | 60 | 315 | 3.0 | 5.0 | 0.00 | 0.00 | 0.00 | 30 | 1011.6 |
| 20260503213436 | 60 | 280 | 8.0 | 11.0 | 0.00 | 0.00 | 0.00 | 31 | 1011.6 |
| 20260503212932 | 61 | 335 | 6.0 | 9.0 | 0.00 | 0.00 | 0.00 | 32 | 1011.5 |
| 20260503212430 | 60 | 325 | 10.0 | 15.0 | 0.00 | 0.00 | 0.00 | 30 | 1011.5 |
| 20260503211927 | 61 | 281 | 3.0 | 3.0 | 0.00 | 0.00 | 0.00 | 33 | 1011.5 |
| 20260503211424 | 60 | 262 | 5.0 | 7.0 | 0.00 | 0.00 | 0.00 | 32 | 1011.6 |
| 20260503210919 | 60 | 318 | 1.0 | 5.0 | 0.00 | 0.00 | 0.00 | 33 | 1011.8 |
| 20260503210416 | 60 | 324 | 4.0 | 6.0 | 0.00 | 0.00 | 0.00 | 32 | 1011.6 |
| 20260503205910 | 59 | 293 | 7.0 | 9.0 | 0.00 | 0.00 | 0.00 | 30 | 1011.6 |
| 20260503205408 | 60 | 226 | 6.0 | 7.0 | 0.00 | 0.00 | 0.00 | 32 | 1011.6 |
| 20260503204904 | 60 | 8 | 4.0 | 5.0 | 0.00 | 0.00 | 0.00 | 32 | 1011.7 |
| 20260503204401 | 60 | 309 | 9.0 | 11.0 | 0.00 | 0.00 | 0.00 | 31 | 1011.6 |
| 20260503203859 | 59 | 264 | 10.0 | 13.0 | 0.00 | 0.00 | 0.00 | 31 | 1011.6 |
| 20260503203356 | 60 | 323 | 7.0 | 11.0 | 0.00 | 0.00 | 0.00 | 32 | 1011.6 |
| 20260503202852 | 59 | 251 | 7.0 | 10.0 | 0.00 | 0.00 | 0.00 | 32 | 1011.8 |
| 20260503202351 | 59 | 302 | 6.0 | 9.0 | 0.00 | 0.00 | 0.00 | 33 | 1011.8 |
| 20260503201849 | 59 | 335 | 11.0 | 13.0 | 0.00 | 0.00 | 0.00 | 31 | 1011.8 |
| 20260503201345 | 59 | 331 | 7.0 | 8.0 | 0.00 | 0.00 | 0.00 | 30 | 1011.8 |
| 20260503200843 | 59 | 282 | 3.0 | 5.0 | 0.00 | 0.00 | 0.00 | 33 | 1011.8 |
| 20260503200338 | 58 | 315 | 10.0 | 16.0 | 0.00 | 0.00 | 0.00 | 33 | 1011.9 |
| 20260503195836 | 58 | 1 | 9.0 | 13.0 | 0.00 | 0.00 | 0.00 | 32 | 1012.0 |
| 20260503195332 | 59 | 350 | 8.0 | 11.0 | 0.00 | 0.00 | 0.00 | 31 | 1012.0 |
| 20260503194830 | 60 | 294 | 11.0 | 15.0 | 0.00 | 0.00 | 0.00 | 32 | 1012.2 |
| 20260503194326 | 60 | 238 | 1.0 | 2.0 | 0.00 | 0.00 | 0.00 | 32 | 1011.9 |
| 20260503193822 | 60 | 216 | 3.0 | 5.0 | 0.00 | 0.00 | 0.00 | 34 | 1012.0 |
| 20260503193318 | 59 | 338 | 4.0 | 5.0 | 0.00 | 0.00 | 0.00 | 32 | 1012.0 |
| 20260503192814 | 59 | 233 | 7.0 | 10.0 | 0.00 | 0.00 | 0.00 | 33 | 1012.3 |
| 20260503192310 | 59 | 232 | 8.0 | 9.0 | 0.00 | 0.00 | 0.00 | 33 | 1012.2 |
| 20260503191806 | 58 | 332 | 12.0 | 14.0 | 0.00 | 0.00 | 0.00 | 31 | 1012.2 |
| 20260503191303 | 58 | 354 | 3.0 | 6.0 | 0.00 | 0.00 | 0.00 | 36 | 1012.2 |
| 20260503190800 | 58 | 285 | 10.0 | 13.0 | 0.00 | 0.00 | 0.00 | 31 | 1012.2 |
| 20260503190257 | 58 | 328 | 11.0 | 15.0 | 0.00 | 0.00 | 0.00 | 34 | 1012.3 |
| 20260503185754 | 58 | 317 | 10.0 | 13.0 | 0.00 | 0.00 | 0.00 | 33 | 1012.3 |
| 20260503185250 | 58 | 323 | 9.0 | 13.0 | 0.00 | 0.00 | 0.00 | 35 | 1012.4 |
| 20260503184744 | 57 | 290 | 2.0 | 3.0 | 0.00 | 0.00 | 0.00 | 34 | 1012.7 |
| 20260503184241 | 58 | 245 | 6.0 | 8.0 | 0.00 | 0.00 | 0.00 | 37 | 1012.3 |
| 20260503183737 | 58 | 252 | 9.0 | 15.0 | 0.00 | 0.00 | 0.00 | 34 | 1012.5 |
| 20260503183235 | 58 | 318 | 14.0 | 20.0 | 0.00 | 0.00 | 0.00 | 33 | 1012.7 |
| 20260503182732 | 58 | 322 | 17.0 | 21.0 | 0.00 | 0.00 | 0.00 | 36 | 1012.7 |
| 20260503182231 | 57 | 300 | 5.0 | 7.0 | 0.00 | 0.00 | 0.00 | 37 | 1012.7 |
| 20260503181728 | 56 | 266 | 8.0 | 10.0 | 0.00 | 0.00 | 0.00 | 33 | 1012.7 |
| 20260503181225 | 57 | 320 | 11.0 | 15.0 | 0.00 | 0.00 | 0.00 | 35 | 1012.5 |
| 20260503180721 | 56 | 307 | 6.0 | 8.0 | 0.00 | 0.00 | 0.00 | 36 | 1012.7 |
| 20260503180219 | 56 | 288 | 5.0 | 7.0 | 0.00 | 0.00 | 0.00 | 36 | 1012.7 |
| 20260503175715 | 56 | 341 | 6.0 | 7.0 | 0.00 | 0.00 | 0.00 | 37 | 1012.8 |
| 20260503175214 | 56 | 347 | 16.0 | 21.0 | 0.00 | 0.00 | 0.00 | 35 | 1012.8 |
| 20260503174709 | 56 | 317 | 8.0 | 11.0 | 0.00 | 0.00 | 0.00 | 39 | 1012.9 |
| 20260503174207 | 54 | 307 | 5.0 | 7.0 | 0.00 | 0.00 | 0.00 | 41 | 1012.8 |
| 20260503173707 | 55 | 351 | 8.0 | 10.0 | 0.00 | 0.00 | 0.00 | 38 | 1013.1 |
| 20260503173204 | 54 | 278 | 8.0 | 9.0 | 0.00 | 0.00 | 0.00 | 41 | 1013.0 |
| 20260503172701 | 54 | 316 | 7.0 | 9.0 | 0.00 | 0.00 | 0.00 | 40 | 1012.9 |
| 20260503172158 | 54 | 298 | 5.0 | 6.0 | 0.00 | 0.00 | 0.00 | 42 | 1013.0 |
| 20260503171654 | 53 | 287 | 5.0 | 6.0 | 0.00 | 0.00 | 0.00 | 42 | 1013.3 |
| 20260503171152 | 55 | 311 | 13.0 | 15.0 | 0.00 | 0.00 | 0.00 | 40 | 1013.2 |
| 20260503170649 | 54 | 346 | 7.0 | 10.0 | 0.00 | 0.00 | 0.00 | 41 | 1013.2 |
| 20260503170145 | 53 | 343 | 3.0 | 5.0 | 0.00 | 0.00 | 0.00 | 43 | 1013.4 |